UNSW-ECO (42723 NORAD) Tracking and Keplerian Element Data

This shows tracking and keplerian element data for the satellite.

Feedback or suggestion? Click here.




ElementValue
Catalog42723
NameUNSW-ECO
Epoch Orbit8521
Epoch Day323.13732682
Epoch Year2018
RAAN266.2611
Inclination51.6347
Eccentricity0.0007339
Argument of Perigee124.8406
Mean Anonmoly235.3297
Mean Motion16.04255903
Decay Rate0.00410084
L11 42723U 98067MC 18323.13732682 .00410084 87610-4 60871-3 0 9995
L22 42723 51.6347 266.2611 0007339 124.8406 235.3297 16.04255903 85219

Live tracking and technical data element details for UNSW-ECO (NORAD 42723). UNSW-ECO can be tracked NOW for your location showing map with azimuth and elevation plus other details from your city location.

Track the satellite on the map from your city or location and see movement details for azimuth, elevation, latitude, longitude, range, height, and movement on the map or in text.







IsCatalogInMostPopularTable: catalog: 42723, numindb: 148
Update: records affected: 1



GetName: 42723 UNSW-ECO

Hit Count: updated at: Mon, 19 Nov 2018 10:58:53 GMT